Location: Boiro
(42.6475°N, 8.8834°W)
Time: 08:57:43
(UTC+02:00)

NANOSAT C BR1 - Pass Details

Date: 21 August 2022
Orbit: 582 x 600 km, 98.0° (Epoch: 25 September)

Event Time Altitude Azimuth Distance (km) Brightness Sun altitude
Rises 05:45:32 0° 359° (N) 2,835 ? -20.5°
Reaches altitude 10° 05:48:02 10° 346° (NNW) 1,925 ? -20.2°
Enters shadow 05:51:13 23° 296° (WNW) 1,259 ? -19.7°
